STARLINER CFT-1 (59968 NORAD) Tracking and Keplerian Element Data

This shows tracking and keplerian element data for the satellite.

Feedback or suggestion? Click here.




ElementValue
Catalog59968
NameSTARLINER CFT-1
Epoch Orbit45703
Epoch Day159.4007979
Epoch Year2024
RAAN3.7829
Inclination51.6379
Eccentricity0.0006188
Argument of Perigee282.4327
Mean Anonmoly77.597
Mean Motion15.50989537
Decay Rate0.00027437
L11 59968U 24109A 24159.40079790 .00027437 00000+0 47007-3 0 9993
L22 59968 51.6379 3.7829 0006188 282.4327 77.5970 15.50989537457036



Live tracking and technical data element details for STARLINER CFT-1 (NORAD 59968). STARLINER CFT-1 can be tracked NOW for your location showing map with azimuth and elevation plus other details from your city location.







IsCatalogInMostPopularTable: catalog: 59968, numindb: 15
Update: records affected: 1



GetName: 59968 STARLINER CFT-1

Hit Count: updated at: Tue, 16 Jul 2024 02:47:50 GMT